星链-5667 (STARLINK-5667 )

导读 | 星芒AI

STARLINK-5667 是 SpaceX Starlink 卫星互联网项目中的一颗低轨通信卫星。它属于 Starlink 群体部署计划的一部分,旨在通过提供全球高速互联网服务,改善偏远地区的网络连接。该卫星采用可重复使用设计,配备先进推进系统,用于轨道调整和任务结束后受控离轨。STARLINK-5667 于近期发射入轨,加入 Starlink 卫星网络,为全球用户提供更稳定、低延迟的互联网服务。

基本信息
目录编号:
55337
目录名称:
STARLINK-5667
国际标识:
2023-013G
轨道中心:
EARTH
卫星名称:
星链-5667
卫星全名:
星链-5667 (STARLINK-5667 )
卫星状态:
在轨 (已飞行1060 天)
发射日期:
2023-01-26 UTC
国别 :
美国 (US)
星等 :
--
轨道信息
数据来源 国际轨道数据
星历时间: 2025-12-21T09:51:19+0800
12小时前
查看轨道信息
半长轴: 6937.229km
偏心率: 0.0001408
轨道倾角: 43.007°
近地点辐角 269.598°
升交点赤经 354.476°
平近点角 90.470°
近地点: 558.115km
远地点: 560.069km
周期: 95.838分钟
每日圈数: 15.025322
详细信息
固有亮度:
5
最大亮度:
2.5
卫星平台:
Starlink v1.5
覆盖范围:
全球
运营商:
太空探索技术公司
运营商所在国:
美国
制造商(研发单位):
太空探索技术公司
制造商所在国:
美国
使用方式:
暂无
卫星简介
星链(Starlink)计划是由太空探索技术公司(SpaceX)提出的一个巨型低轨卫星互联网星座项目,计划在2019年至2024年间在太空搭建由约1.2万颗卫星组成的“星链”网络,其中1584颗将部署在地球上空550千米处的近地轨道,并从2020年开始工作。该卫星仍在工作。
2D轨道图
3D轨道图
轨道高度分析图
轨道倾角分析图
轨道综合分析图
查看轨道综合分析图